Domov               UVHVVR             MKGP            O straneh              
ZDRAVSTVENO VARSTVO RASTLIN
  MREŽA AGROMET. POSTAJ
 ► PROGNOSTIČNA OBVESTILA
AGROMETEOROLOŠKI PODATKI -
ARSO
OBVLADOVANJE TVEGANJ ZARADI
NEUGODNIH VREMENSKIH RAZMER
  ► NARAVNE NESREČE
  ► SUŠA/MOČA
  ► NAMAKANJE
  ► ŽLED (gozdarstvo)
KARTOGRAFSKI PRIKAZI
SPLETNE POVEZAVE
PROJEKTI IN PUBLIKACIJE

AGROMETEOROLOŠKA MREŽA: VREMENSKE POSTAJE IN FENOLOŠKA OPAZOVANJA

Pregled podatkov za lokacijo Vnajnarje, meteorološka postaja 27470

Pregled senzorjev na lokaciji

ID Ime Zadnja
vrednost
Datum
zadnje
spremembe
Tip
senzorja
3759 Omočenost lista (U) 0 U 23.3.2019 11:59 A730WET
3756 Padavine (mm) 0 mm 23.3.2019 12:00 Generic 0.2 mm
3757 Relativna vlaga 2 m (% RH) 48,52 % RH 23.3.2019 12:00 Generic 0 - 100 %
3758 Temperatura 2 m (°C) 12,04 °C 23.3.2019 12:00 Generic -40 - +60 °C

Pregled podatkov zadnjih 24 ur

Zap.
št.
Datum in čas Vnajnarje
Omočenost
lista
Padavine Relativna
vlaga
2
m
Temperatura
2
m
1 23.3.2019 11:30
2 23.3.2019 11:00 0 0 48,5 12
3 23.3.2019 10:30 0 0 51,5 11,2
4 23.3.2019 10:00 0 0 52,9 10,5
5 23.3.2019 09:30 0 0 54,7 10,4
6 23.3.2019 09:00 0 0 48,4 9
7 23.3.2019 08:30 0 0 58,5 8,9
8 23.3.2019 08:00 0 0 51,2 9,8
9 23.3.2019 07:30 0 0 46,3 8,8
10 23.3.2019 07:00 0 0 49,1 7,7
11 23.3.2019 06:30 0 0 50,4 7,3
12 23.3.2019 06:00 0 0 48,9 7,2
13 23.3.2019 05:30 0 0 47 7,1
14 23.3.2019 05:00 0 0 46,7 6,8
15 23.3.2019 04:30 0 0 47,6 7,3
16 23.3.2019 04:00 0 0 45,1 7,7
17 23.3.2019 03:30 0 0 42,9 8,2
18 23.3.2019 03:00 0 0 43,2 7,8
19 23.3.2019 02:30 0 0 46 8
20 23.3.2019 02:00 0 0 43,6 8,5
21 23.3.2019 01:30 0 0 44,7 8,3
22 23.3.2019 01:00 0 0 44 8,6
23 23.3.2019 00:30 0 0 43 8,8
24 23.3.2019 00:00 0 0 42,5 9,3
25 22.3.2019 23:30 0 0 39,9 9,9
26 22.3.2019 23:00 0 0 38,8 10,1
27 22.3.2019 22:30 0 0 38,4 10,1
28 22.3.2019 22:00 0 0 38,3 10,1
29 22.3.2019 21:30 0 0 39,2 10,2
30 22.3.2019 21:00 0 0 40 10,2
31 22.3.2019 20:30 0 0 41,5 10,3
32 22.3.2019 20:00 0 0 42,4 10,5
33 22.3.2019 19:30 0 0 41 10,9
34 22.3.2019 19:00 0 0 41 11,2
35 22.3.2019 18:30 0 0 40 11,7
36 22.3.2019 18:00 0 0 38,2 12,2
37 22.3.2019 17:30 0 0 37,4 12,6
38 22.3.2019 17:00 0 0 34 13,2
39 22.3.2019 16:30 0 0 33 13,4
40 22.3.2019 16:00 0 0 33,4 13,6
41 22.3.2019 15:30 0 0 32,7 13,7
42 22.3.2019 15:00 0 0 33,4 13,8
43 22.3.2019 14:30 0 0 34,2 13,4
44 22.3.2019 14:00 0 0 34,5 13,3
45 22.3.2019 13:30 0 0 35,3 12,7
46 22.3.2019 13:00 0 0 36,6 12,4
47 22.3.2019 12:30 0 0 36,6 12
48 22.3.2019 12:00 0 0 39,5 11,2
© 2011 Ministrstvo za kmetijstvo, gozdarstvo in prehrano. Vse pravice pridržane.